Regional Weather Roundup
Issued by NWS

Home | Current Version | Previous Version | Text Only | Print | Product List | Glossary On
Versions: 1 2 3 4 5 6 7 8 9 10 11 12 13 14 15 16 17 18 19 20 21 22 23 24 25 26 27 28 29 30 31 32 33 34 35 36 37 38 39 40 41 42 43 44 45 46 47 48 49 50
000
ASUS44 KFWD 251910
RWRTX
NORTH TEXAS HOURLY WEATHER ROUNDUP
NATIONAL WEATHER SERVICE FORT WORTH TX
200 PM CDT FRI JUL 25 2014

NOTE: "FAIR" INDICATES FEW OR NO CLOUDS BELOW 12,000 FEET WITH NO
SIGNIFICANT WEATHER AND/OR OBSTRUCTIONS TO VISIBILITY.

TXZ118-119-252000-
DALLAS/FORT WORTH METROPLEX

CITY           SKY/WX    TMP DP  RH WIND       PRES   REMARKS
DFW AIRPORT    MOSUNNY   96  67  38 VRB3      29.97F HX 100
DALLAS LOVE    MOSUNNY   97  67  37 SW10G18   29.96F HX 101
FTW MEACHAM    SUNNY     97  67  37 S9        29.96F HX 101
DAL-EXECUTIVE  SUNNY     98  67  36 E3        29.97F HX 102
FTW-ALLIANCE   MOSUNNY   95  68  41 SW8       29.96F HX  99
FTW-NAS-JRB    MOSUNNY  100  65  31 S9        30.00F HX 103
FTW-SPINKS     MOSUNNY   97  66  36 S7        29.99F HX 100
ARLINGTON      SUNNY     95  66  38 SE8       29.97F HX  98
GRAND PRAIRIE  SUNNY     93  63  36 SE9       29.98F HX  94
MESQUITE       SUNNY     93  66  40 S8        29.98F HX  96
LANCASTER      SUNNY     96  62  31 S5        29.98F HX  97
$$

TXZ091>094-102>105-117-120-121-131>134-252000-
NORTH CENTRAL TEXAS

CITY           SKY/WX    TMP DP  RH WIND       PRES   REMARKS
SHRMAN/DENISON SUNNY     94  65  38 S9        29.99F HX  96
GAINESVILLE    SUNNY     93  68  43 SW9G16    29.99F HX  97
BOWIE          SUNNY     92  69  46 S7        29.99F HX  97
BRIDGEPORT     SUNNY     95  61  32 S7        29.99F HX  95
DECATUR        SUNNY     93  62  35 S7        29.99F HX  94
DENTON         SUNNY     94  69  44 S7        29.97F HX  99
MCKINNEY       SUNNY     94  70  45 S9        29.98F HX 100
GREENVILLE     SUNNY     91  68  46 SE6       29.99F HX  95
ROCKWALL       SUNNY     93  71  48 S5        29.97F HX 100
TERRELL        SUNNY     95  67  39 VRB7      29.99F HX  99
WAXAHACHIE     SUNNY     95  63  34 SW8       29.99F HX  96
CLEBURNE       SUNNY     93  70  46 S6G13     30.00F HX  99
GRANBURY       SUNNY     98  63  31 S6        29.99F HX  99
$$

TXZ083>090-098>101-113>116-127>130-139>142-154-155-252000-
WESTERN NORTH TEXAS

CITY           SKY/WX    TMP DP  RH WIND       PRES   REMARKS
WICHITA FALLS  SUNNY     96  65  35 S13       29.94F HX  98
WF-KICKAPOO    SUNNY     97  59  28 S12G17    29.96F HX  96
VERNON         SUNNY     99  59  26 S15       29.95F HX  99
ABILENE        SUNNY     94  63  35 SW13G22   30.02F HX  95
ABILENE-DYESS  PTSUNNY   93  63  36 VRB7      30.01F HX  94
BRECKENRIDGE   SUNNY     97  61  29 SW7G16    29.98F HX  97
GRAHAM         SUNNY     98  62  30 SW13      29.96F HX  98
MINERAL WELLS  SUNNY     97  63  32 SW8G17    29.97F HX  98
STEPHENVILLE   SUNNY     93  64  38 S8        30.03F HX  94
COMANCHE       SUNNY     94  64  36 S8        30.02F HX  96
BROWNWOOD      SUNNY     93  64  38 SE9       30.02F HX  95
COLEMAN        SUNNY     93  60  32 S9        30.03F HX  93
BRADY          SUNNY     91  64  40 S8        30.03F HX  93
$$

TXZ143>147-156>162-174-175-252000-
CENTRAL TEXAS

CITY           SKY/WX    TMP DP  RH WIND       PRES   REMARKS
WACO           SUNNY     95  69  42 SE12      29.99F HX 100
WACO-TSTC      MOSUNNY  N/A N/A N/A SW8       29.99F
WACO-MCGREGOR  MOSUNNY   97  68  38 S13       29.99F HX 101
HILLSBORO      SUNNY     96  65  36 S8        29.99F HX  98
CORSICANA      SUNNY     94  69  44 MISG      30.00F HX  99
MEXIA          MOSUNNY   92  73  53 S7        30.00S HX 100
CAMERON        MOSUNNY   93  71  49 S8        30.01S HX  99
TEMPLE         MOSUNNY   93  68  43 SE13      30.01F HX  97
KILLEEN        MOSUNNY   93  68  43 S9        30.01F HX  97
KILLEEN-SKYLRK PTSUNNY   91  66  43 SE5       30.01F HX  94
FORT HOOD      MOSUNNY   95  68  41 S7        30.01F HX  99
GATESVILLE     MOSUNNY   95  68  41 SW7       30.02F HAZE    HX  99
HAMILTON       MOSUNNY   92  65  40 S8        30.03F HX  94
LAMPASAS       MOSUNNY   93  70  46 SE7       30.02S HX  98
$$

TXZ095>097-106>112-122>126-135>138-148>153-164>167-252000-
EAST TEXAS

CITY           SKY/WX    TMP DP  RH WIND       PRES   REMARKS
PARIS          MOSUNNY   90  72  55 S5        30.01F HX  96
SULPHUR SPRNGS MOSUNNY   90  71  53 SW7       30.02F HX  96
CLARKSVILLE    PTSUNNY   89  71  54 S3        30.00F HX  95
MOUNT PLEASANT MOSUNNY   91  72  55 SW7       30.01F HX  98
GILMER         SUNNY     90  73  58 S8        30.02F HX  98
MINEOLA        MOSUNNY   91  72  52 SW5       30.01F HX  98
TYLER          SUNNY     91  71  51 SW10      30.01F HX  97
LONGVIEW       MOSUNNY   92  71  50 VRB5      30.01F HX  98
MARSHALL       SUNNY     90  75  60 CALM      30.03F HX 100
ATHENS         PTSUNNY   90  72  55 S8        30.00F HX  96
JACKSONVILLE   SUNNY     89  70  53 S5        30.05F HX  94
HENDERSON      PTSUNNY   89  70  53 SW6       30.03F HX  95
NACOGDOCHES    MOSUNNY   91  73  55 SW7       30.02F HX 100
LUFKIN         MOSUNNY   92  71  50 W6        30.02F HX  98
$$

SUPPLEMENTAL OBSERVATIONS (CENTRAL)

CITY           SKY/WX    TMP DP  RH WIND       PRES   REMARKS
PAT MAYSE LAKE   N/A     88  72  58 S9          N/A  HX  94
GREENVILLE       N/A     93  73  52 S7          N/A  HX 102
CEDAR HILL       N/A     99  66  34 SW6G14      N/A  HX 102
PALESTINE        N/A     91  72  52 S6          N/A  HX  98
MCGREGOR         N/A     97  66  36 S8          N/A  HX 100
TEMPLE           N/A     93  70  46 S10G20      N/A  HX  99
$$

SUPPLEMENTAL OBSERVATIONS (WEST)

CITY           SKY/WX    TMP DP  RH WIND       PRES   REMARKS
MILLERS CREEK    N/A     99  64  32 SW13        N/A  HX 101
POSSUM KINGDOM   N/A     99  57  25 S8          N/A  HX  97
GRANBURY         N/A     97  61  30 S9G22       N/A  HX  97
HAMBY            N/A    N/A N/A N/A S9G20       N/A
IVIE RESERVOIR   N/A     95  64  36 S5G14       N/A  HX  97
COLORADO BEND    N/A     93  64  38 S8G16       N/A  HX  95
$$

SUPPLEMENTAL OBSERVATIONS (EAST)

CITY           SKY/WX    TMP DP  RH WIND       PRES   REMARKS
CLARKSVILLE      N/A     91  73  55 S6          N/A  HX 100
TEXARKANA        N/A     90  72  55 S5          N/A  HX  96
LINDEN           N/A     91  73  55 W5          N/A  HX 100
GILMER           N/A     91  72  52 SW6         N/A  HX  98
HENDERSON        N/A     91  70  49 SW7         N/A  HX  97
LUFKIN           N/A     91  79  66 MISG        N/A  HX 107
N SABINE NF      N/A     93  72  49 MISG        N/A  HX 100
S SABINE NF      N/A     91  75  59 E7          N/A  HX 102
$$

SUPPLEMENTAL OBSERVATIONS ARE A COLLECTION OF AUTOMATED INSTRUMENTS
THAT ARE MAINTAINED BY A VARIETY OF FEDERAL AND STATE AGENCIES.
CERTAIN ELEMENTS...SUCH AS HUMIDITY VALUES AND SUSTAINED WIND
SPEEDS...MAY BE APPROXIMATED.



USA.gov is the U.S. government's official web portal to all federal, state and local government web resources and services.